Valdosta, GA

3:48 AM EDT on May 25, 2017 (GMT -0400)
Moody Air Force Base

Weather History for KVAD - November, 2012

Change the Weather History Date:

Monday, November 12, 2012

  Actual Average Record
Temperature  
Mean Temperature 68 °F -  
Max Temperature 77 °F 69 °F 83 °F (2015)
Min Temperature 58 °F 48 °F 28 °F (2011)
Cooling Degree Days 2    
Growing Degree Days 18 (Base 50)    
Moisture  
Dew Point 61 °F    
Average Humidity 83    
Maximum Humidity 100    
Minimum Humidity 57    
Precipitation  
Precipitation 0.00 in - - ()
Sea Level Pressure  
Sea Level Pressure 30.23 in    
Wind  
Wind Speed 3 mph (ESE)    
Max Wind Speed 8 mph    
Max Gust Speed -    
Visibility 9 miles    
Events Rain    
Averages and records for this station are not official NWS values.
T = Trace of Precipitation, MM = Missing Value Source: NWS Daily Summary

Daily Weather History Graph

Daily Weather History Graph

Search for Another Location

Airport or City:

Trip Planner

Search our weather history database for the weather conditions in past years. The results will help you decide how hot, cold, wet, or windy it might be!

Date:

Astronomy

Nov. 12, 2012 Rise Set
Actual Time 6:57 AM EST 5:36 PM EST
Civil Twilight 6:31 AM EST 6:01 PM EST
Nautical Twilight 6:02 AM EST 6:30 PM EST
Astronomical Twilight 5:34 AM EST 6:59 PM EST
Moon 5:25 AM EST (11/12) 4:38 PM EST (11/12)
Length of Visible Light 11h 29m
Length of Day
10h 38m
Waning Crescent, 2% of the Moon is Illuminated
Nov 12
Waning Crescent
Nov 13
New
Nov 20
First Quarter
Nov 28
Full
Dec 6
Last Quarter

Hourly Weather History & Observations

Time (EST) Temp. Dew Point Humidity Pressure Visibility Wind Dir Wind Speed Gust Speed Precip Events Conditions
12:55 AM 61.5 °F 59.0 °F 91% 30.29 in 10.0 mi East 4.6 mph - N/A   Clear
1:55 AM 59.9 °F 58.8 °F 96% 30.28 in 10.0 mi East 3.5 mph - N/A   Clear
2:55 AM 59.5 °F 58.6 °F 97% 30.26 in 10.0 mi East 4.6 mph - N/A   Partly Cloudy
3:55 AM 58.6 °F 58.3 °F 99% 30.25 in 10.0 mi ENE 3.5 mph - N/A   Clear
4:55 AM 58.8 °F 58.5 °F 99% 30.24 in 10.0 mi East 5.8 mph - N/A   Mostly Cloudy
5:55 AM 58.6 °F 58.3 °F 99% 30.25 in 10.0 mi Calm Calm - N/A   Partly Cloudy
6:55 AM 58.5 °F 58.1 °F 99% 30.25 in 10.0 mi East 3.5 mph - N/A   Clear
7:55 AM 60.4 °F 60.1 °F 99% 30.27 in 10.0 mi East 3.5 mph - N/A   Clear
8:55 AM 63.0 °F 62.6 °F 99% 30.29 in 10.0 mi ESE 3.5 mph - N/A   Clear
9:55 AM 68.5 °F 63.3 °F 83% 30.30 in 10.0 mi SSE 4.6 mph - N/A   Clear
10:55 AM 72.3 °F 63.5 °F 74% 30.29 in 10.0 mi South 6.9 mph - N/A   Scattered Clouds
11:55 AM 75.0 °F 62.6 °F 65% 30.26 in 10.0 mi SSE 8.1 mph - N/A   Partly Cloudy
12:55 PM 76.6 °F 60.3 °F 57% 30.23 in 10.0 mi SSE 6.9 mph - N/A   Scattered Clouds
1:55 PM 75.6 °F 61.0 °F 60% 30.22 in 10.0 mi South 5.8 mph - N/A   Partly Cloudy
2:29 PM 77.0 °F 60.8 °F 57% 30.21 in 10.0 mi Calm Calm - N/A Rain Light Rain
2:38 PM 75.2 °F 60.8 °F 61% 30.21 in 10.0 mi Calm Calm - N/A   Overcast
2:55 PM 76.1 °F 61.0 °F 59% 30.20 in 10.0 mi Calm Calm - 0.00 in   Overcast
3:28 PM 77.0 °F 60.8 °F 57% 30.19 in 10.0 mi Calm Calm - N/A Rain Light Rain
3:37 PM 77.0 °F 60.8 °F 57% 30.19 in 10.0 mi Calm Calm - N/A   Partly Cloudy
3:55 PM 76.3 °F 61.2 °F 59% 30.19 in 10.0 mi South 3.5 mph - 0.00 in   Clear
4:55 PM 73.8 °F 62.8 °F 68% 30.20 in 10.0 mi Calm Calm - N/A   Mostly Cloudy
5:55 PM 69.4 °F 63.3 °F 81% 30.20 in 10.0 mi Calm Calm - N/A   Overcast
6:30 PM 68.0 °F 64.4 °F 88% 30.21 in 10.0 mi Calm Calm - N/A Rain Light Rain
6:39 PM 68.0 °F 62.6 °F 83% 30.21 in 10.0 mi Calm Calm - N/A   Overcast
6:55 PM 67.3 °F 63.3 °F 87% 30.21 in 10.0 mi Calm Calm - 0.00 in   Overcast
7:55 PM 68.2 °F 63.9 °F 86% 30.20 in 10.0 mi East 5.8 mph - N/A   Overcast
8:55 PM 67.5 °F 65.3 °F 93% 30.20 in 10.0 mi Calm Calm - N/A   Overcast
9:55 PM 63.1 °F 62.6 °F 98% 30.21 in 10.0 mi Calm Calm - N/A   Mostly Cloudy
10:44 PM 62.6 °F 62.6 °F 100% 30.21 in 3.0 mi Calm Calm - N/A   Partly Cloudy
10:52 PM 62.6 °F 62.6 °F 100% 30.21 in 4.0 mi Calm Calm - N/A   Scattered Clouds
10:55 PM 62.4 °F 62.2 °F 99% 30.21 in 5.0 mi Calm Calm - N/A   Scattered Clouds
11:55 PM 62.6 °F 62.6 °F 100% 30.20 in 10.0 mi Calm Calm - N/A   Overcast